This is the latest recevied weather packets stored in our database for station/object OZ1IEP-5. If no packets are shown the sender has not sent any weather packets the latest 10 day(s).
| Time | Temp. | Humidity | Pressure | Rain* | Wind** | Luminosity | Snow |
|---|---|---|---|---|---|---|---|
| 1787517008 | 15° C | 90% | 1016.2 hPa | 0 mm | - | 0 W/m² | - |
| 1787516406 | 15° C | 90% | 1016.2 hPa | 0 mm | - | 0 W/m² | - |
| 1787515805 | 15° C | 90% | 1016.1 hPa | 0 mm | - | 0 W/m² | - |
| 1787515208 | 15° C | 90% | 1016.1 hPa | 0 mm | - | 0 W/m² | - |
| 1787514606 | 15° C | 90% | 1016.1 hPa | 0 mm | - | 0 W/m² | - |
| 1787514006 | 15° C | 89% | 1016 hPa | 0 mm | - | 0 W/m² | - |
| 1787513410 | 15° C | 89% | 1016.1 hPa | 0 mm | - | 0 W/m² | - |
| 1787512806 | 15.56° C | 89% | 1016.1 hPa | 0 mm | - | 0 W/m² | - |
| 1787512206 | 15.56° C | 88% | 1016.1 hPa | 0 mm | - | 0 W/m² | - |
| 1787511619 | 15.56° C | 88% | 1016 hPa | 0 mm | - | 0 W/m² | - |
| 1787511006 | 15.56° C | 88% | 1015.7 hPa | 0 mm | - | 0 W/m² | - |
| 1787510406 | 16.11° C | 88% | 1015.6 hPa | 0 mm | - | 0 W/m² | - |
| 1787509808 | 16.11° C | 88% | 1015.6 hPa | 0 mm | - | 0 W/m² | - |
| 1787509206 | 16.11° C | 87% | 1015.4 hPa | 0 mm | - | 0 W/m² | - |
| 1787508606 | 16.11° C | 87% | 1015.2 hPa | 0 mm | - | 7 W/m² | - |
| 1787508008 | 16.67° C | 87% | 1015.2 hPa | 0 mm | - | 11 W/m² | - |
| 1787507405 | 16.67° C | 87% | 1015.2 hPa | 0 mm | - | 28 W/m² | - |
| 1787506805 | 16.67° C | 86% | 1015.2 hPa | 0 mm | - | 39 W/m² | - |
| 1787506208 | 16.67° C | 86% | 1015.1 hPa | 0 mm | - | 26 W/m² | - |
| 1787505605 | 16.67° C | 85% | 1015.1 hPa | 0 mm | - | 60 W/m² | - |
| 1787505006 | 17.22° C | 84% | 1015.1 hPa | 0 mm | - | 26 W/m² | - |
| 1787504407 | 17.22° C | 84% | 1014.8 hPa | 0 mm | - | 40 W/m² | - |
| 1787503805 | 17.22° C | 84% | 1014.8 hPa | 0 mm | - | 91 W/m² | - |
| 1787503206 | 17.22° C | 84% | 1014.6 hPa | 0 mm | - | 51 W/m² | - |
| 1787502608 | 17.22° C | 83% | 1014.6 hPa | 0 mm | - | 58 W/m² | - |
* Rain latest hour (hover to see other rain measurements)
** Current wind speed in m/s (hover to see current wind gust speed)